This is the latest recevied weather packets stored in our database for station/object K7D3. If no packets are shown the sender has not sent any weather packets the latest 10 day(s).
| Time | Temp. | Humidity | Pressure | Rain* | Wind** | Luminosity | Snow |
|---|---|---|---|---|---|---|---|
| 1777564119 | 7.22° C | 63% | - | 0 mm | 4.02 m/s, 287° | - | - |
| 1777563640 | 6.67° C | 72% | - | 0 mm | 3.13 m/s, 336° | - | - |
| 1777563158 | 6.11° C | 69% | - | 0 mm | 2.24 m/s, 343° | - | - |
| 1777562678 | 5.56° C | 69% | - | 0 mm | 4.02 m/s, 346° | - | - |
| 1777562200 | 6.67° C | 72% | - | 0 mm | 3.58 m/s, 297° | - | - |
| 1777561717 | 6.11° C | 70% | - | 0 mm | 2.68 m/s, 305° | - | - |
| 1777561238 | 6.11° C | 67% | - | 0 mm | 3.58 m/s, 0° | - | - |
| 1777560759 | 6.11° C | 68% | - | 0 mm | 2.68 m/s, 342° | - | - |
| 1777560276 | 5.56° C | 73% | - | 0 mm | 2.24 m/s, 287° | - | - |
| 1777559797 | 5.56° C | 73% | - | 0 mm | 3.58 m/s, 308° | - | - |
| 1777559318 | 5.56° C | 71% | - | 0 mm | 3.13 m/s, 65° | - | - |
| 1777558836 | 6.11° C | 75% | - | 0 mm | 3.58 m/s, 6° | - | - |
| 1777558356 | 5.56° C | 78% | - | 0 mm | 2.68 m/s, 17° | - | - |
| 1777557877 | 5° C | 80% | - | 0 mm | 3.13 m/s, 10° | - | - |
| 1777557394 | 5.56° C | 82% | - | 0 mm | 2.24 m/s, 39° | - | - |
| 1777556915 | 5.56° C | 81% | - | 0 mm | 2.68 m/s, 17° | - | - |
| 1777556436 | 5° C | 84% | - | 0 mm | 3.13 m/s, 45° | - | - |
| 1777555953 | 5.56° C | 88% | - | 0 mm | 1.79 m/s, 322° | - | - |
| 1777555474 | 5° C | 89% | - | 0 mm | 2.68 m/s, 27° | - | - |
| 1777554995 | 4.44° C | 90% | - | 0 mm | 3.13 m/s, 14° | - | - |
| 1777554512 | 4.44° C | 92% | - | 0 mm | 2.68 m/s, 20° | - | - |
| 1777554033 | 4.44° C | 93% | - | 0 mm | 2.68 m/s, 356° | - | - |
| 1777553553 | 3.89° C | 95% | - | 0 mm | 3.58 m/s, 346° | - | - |
| 1777553071 | 3.89° C | 97% | - | 0 mm | 2.24 m/s, 325° | - | - |
| 1777552591 | 3.89° C | 97% | - | 0 mm | 1.79 m/s, 352° | - | - |
* Rain latest hour (hover to see other rain measurements)
** Current wind speed in m/s (hover to see current wind gust speed)